W6MAF Weather Reports


Display with metric or nautical units.
time (UTC)temp
F
wind
direction
speed
MPH
gust
MPH
rain 1hr
in
rain 24hr
in
rain mn
in
humidity
%
barometer
mb
20260904015424 71 222 9.0 5.0 0.00 0.00 0.00 23
20260904014926 71 229 11.0 14.0 0.00 0.00 0.00 22
20260904014429 71 219 10.0 13.0 0.00 0.00 0.00 21
20260904013931 72 200 10.0 4.0 0.00 0.00 0.00 21
20260904012932 73 217 8.0 6.0 0.00 0.00 0.00 18
20260904012435 73 198 7.0 10.0 0.00 0.00 0.00 17
20260904011937 74 214 12.0 10.0 0.00 0.00 0.00 15
20260904011439 74 231 9.0 7.0 0.00 0.00 0.00 14
20260904010941 74 211 0.0 0.0 0.00 0.00 0.00 12
20260904010444 74 222 8.0 11.0 0.00 0.00 0.00 11
20260904005943 74 201 14.0 13.0 0.00 0.00 0.00 9
20260904005445 74 186 0.0 0.0 0.00 0.00 0.00 9
20260904004947 74 186 0.0 0.0 0.00 0.00 0.00 8
20260904004449 74 200 9.0 8.0 0.00 0.00 0.00 8
20260904003952 74 198 13.0 12.0 0.00 0.00 0.00 9
20260904003454 74 198 12.0 14.0 0.00 0.00 0.00 9
20260904002953 74 174 10.0 0.0 0.00 0.00 0.00 11
20260904002456 75 201 13.0 17.0 0.00 0.00 0.00 11
20260904001957 75 186 9.0 7.0 0.00 0.00 0.00 12
20260904001500 75 187 8.0 0.0 0.00 0.00 0.00 13
20260904001002 74 219 7.0 10.0 0.00 0.00 0.00 13
20260904000504 75 180 16.0 15.0 0.00 0.00 0.00 13
20260904000004 75 210 18.0 10.0 0.00 0.00 0.00 12
20260903235008 75 219 16.0 11.0 0.00 0.00 0.00 11
20260903234510 76 212 14.0 18.0 0.00 0.00 0.00 11
20260903234012 76 195 14.0 16.0 0.00 0.00 0.00 10
20260903233515 76 205 15.0 22.0 0.00 0.00 0.00 10
20260903233014 76 212 10.0 10.0 0.00 0.00 0.00 9
20260903232516 76 179 15.0 21.0 0.00 0.00 0.00 11
20260903232018 76 176 14.0 12.0 0.00 0.00 0.00 10
20260903231520 76 200 9.0 12.0 0.00 0.00 0.00 10
20260903231023 77 205 12.0 13.0 0.00 0.00 0.00 8
20260903230525 77 208 12.0 12.0 0.00 0.00 0.00 8
20260903230025 77 208 7.0 18.0 0.00 0.00 0.00 7
20260903225526 77 190 12.0 13.0 0.00 0.00 0.00 7
20260903225028 77 190 11.0 7.0 0.00 0.00 0.00 6
20260903224531 77 187 8.0 5.0 0.00 0.00 0.00 7
20260903224033 77 197 17.0 13.0 0.00 0.00 0.00 6
20260903223535 77 231 11.0 10.0 0.00 0.00 0.00 6
20260903223034 78 198 13.0 15.0 0.00 0.00 0.00 7
20260903222536 78 188 14.0 10.0 0.00 0.00 0.00 7
20260903222039 78 218 12.0 9.0 0.00 0.00 0.00 6
20260903221541 78 229 12.0 10.0 0.00 0.00 0.00 6
20260903221043 77 208 9.0 8.0 0.00 0.00 0.00 9
20260903220546 77 200 8.0 19.0 0.00 0.00 0.00 9
20260903220045 77 204 15.0 9.0 0.00 0.00 0.00 9
20260903215547 77 179 12.0 12.0 0.00 0.00 0.00 9
20260903215049 77 195 10.0 4.0 0.00 0.00 0.00 10
20260903214551 77 186 9.0 0.0 0.00 0.00 0.00 10
20260903214054 77 215 15.0 15.0 0.00 0.00 0.00 10
20260903213556 77 214 12.0 9.0 0.00 0.00 0.00 9
20260903213055 77 224 1.0 5.0 0.00 0.00 0.00 9
20260903212557 77 219 12.0 11.0 0.00 0.00 0.00 9
20260903212131 77 190 11.0 11.0 0.00 0.00 0.00 9
20260903212059 77 190 11.0 11.0 0.00 0.00 0.00 9
20260903211602 77 204 10.0 8.0 0.00 0.00 0.00 10
20260903211104 77 181 14.0 10.0 0.00 0.00 0.00 10
20260903210606 77 229 12.0 5.0 0.00 0.00 0.00 10
20260903210105 77 201 12.0 12.0 0.00 0.00 0.00 10
20260903205608 77 217 11.0 7.0 0.00 0.00 0.00 11
20260903205110 76 221 14.0 12.0 0.00 0.00 0.00 11
20260903204612 76 232 14.0 15.0 0.00 0.00 0.00 12
20260903204114 76 197 10.0 12.0 0.00 0.00 0.00 12
20260903203617 76 210 8.0 10.0 0.00 0.00 0.00 12
20260903203116 76 207 11.0 18.0 0.00 0.00 0.00 11
20260903202618 76 204 14.0 17.0 0.00 0.00 0.00 11
20260903202120 76 210 12.0 14.0 0.00 0.00 0.00 11
20260903201623 76 221 11.0 14.0 0.00 0.00 0.00 12
20260903201125 76 226 18.0 7.0 0.00 0.00 0.00 12
20260903200628 76 257 17.0 5.0 0.00 0.00 0.00 12
20260903200126 76 236 16.0 10.0 0.00 0.00 0.00 12
20260903195628 76 243 13.0 15.0 0.00 0.00 0.00 12
20260903195131 75 273 13.0 4.0 0.00 0.00 0.00 12
20260903194633 75 215 13.0 17.0 0.00 0.00 0.00 13
20260903194135 75 224 16.0 22.0 0.00 0.00 0.00 13
20260903193638 75 205 14.0 11.0 0.00 0.00 0.00 13
20260903193137 75 232 13.0 18.0 0.00 0.00 0.00 13
20260903192639 75 221 16.0 16.0 0.00 0.00 0.00 13
20260903192141 75 203 10.0 13.0 0.00 0.00 0.00 13
20260903191643 74 246 15.0 0.0 0.00 0.00 0.00 13
20260903191146 74 235 17.0 16.0 0.00 0.00 0.00 13
20260903190648 74 210 10.0 4.0 0.00 0.00 0.00 14
20260903190147 73 215 15.0 14.0 0.00 0.00 0.00 14
20260903185650 73 239 17.0 9.0 0.00 0.00 0.00 14
20260903185152 73 217 11.0 17.0 0.00 0.00 0.00 15
20260903184654 73 219 18.0 18.0 0.00 0.00 0.00 14
20260903184156 73 226 13.0 17.0 0.00 0.00 0.00 14
20260903183659 72 191 12.0 6.0 0.00 0.00 0.00 15
20260903183158 72 201 15.0 16.0 0.00 0.00 0.00 15
20260903182700 72 208 16.0 12.0 0.00 0.00 0.00 15
20260903182202 72 194 10.0 0.0 0.00 0.00 0.00 15
20260903181241 72 218 15.0 6.0 0.00 0.00 0.00 15
20260903181207 72 218 15.0 6.0 0.00 0.00 0.00 15
20260903180709 71 217 14.0 18.0 0.00 0.00 0.00 15
20260903180208 71 215 12.0 11.0 0.00 0.00 0.00 16
20260903175710 70 210 15.0 8.0 0.00 0.00 0.00 15
20260903175213 70 219 11.0 13.0 0.00 0.00 0.00 14
20260903174715 70 231 12.0 13.0 0.00 0.00 0.00 14
20260903174217 70 243 8.0 11.0 0.00 0.00 0.00 14
20260903173219 69 208 14.0 11.0 0.00 0.00 0.00 14
20260903172721 69 212 13.0 19.0 0.00 0.00 0.00 15
20260903172223 69 226 13.0 3.0 0.00 0.00 0.00 14
20260903171726 69 238 8.0 14.0 0.00 0.00 0.00 15
20260903171228 68 217 7.0 13.0 0.00 0.00 0.00 16
20260903170731 68 181 3.0 16.0 0.00 0.00 0.00 17
20260903170229 68 204 12.0 18.0 0.00 0.00 0.00 18
20260903165731 67 214 12.0 11.0 0.00 0.00 0.00 20
20260903165234 67 215 10.0 16.0 0.00 0.00 0.00 21
20260903164737 67 211 16.0 16.0 0.00 0.00 0.00 23
20260903164238 66 226 12.0 17.0 0.00 0.00 0.00 25
20260903163741 66 207 13.0 12.0 0.00 0.00 0.00 26
20260903163240 65 233 13.0 14.0 0.00 0.00 0.00 27
20260903162743 65 225 10.0 14.0 0.00 0.00 0.00 29
20260903162244 65 198 10.0 14.0 0.00 0.00 0.00 30
20260903161747 64 219 11.0 18.0 0.00 0.00 0.00 32
20260903161249 64 201 9.0 14.0 0.00 0.00 0.00 33
20260903160751 64 215 10.0 15.0 0.00 0.00 0.00 34
20260903160250 64 215 13.0 12.0 0.00 0.00 0.00 35
20260903155753 63 218 12.0 16.0 0.00 0.00 0.00 37
20260903155255 63 217 12.0 13.0 0.00 0.00 0.00 38
20260903154757 63 214 14.0 12.0 0.00 0.00 0.00 39
20260903153803 62 238 11.0 8.0 0.00 0.00 0.00 39
20260903153301 62 160 6.0 3.0 0.00 0.00 0.00 41
20260903152803 61 231 12.0 16.0 0.00 0.00 0.00 41
20260903152307 61 226 12.0 9.0 0.00 0.00 0.00 41
20260903151808 61 233 10.0 12.0 0.00 0.00 0.00 41
20260903151311 60 208 11.0 4.0 0.00 0.00 0.00 41
20260903150813 60 240 8.0 6.0 0.00 0.00 0.00 42
20260903150312 59 229 11.0 16.0 0.00 0.00 0.00 42
20260903145814 59 214 2.0 0.0 0.00 0.00 0.00 45
20260903145316 58 212 3.0 0.0 0.00 0.00 0.00 46
20260903144818 58 176 8.0 0.0 0.00 0.00 0.00 46
20260903144321 57 203 10.0 14.0 0.00 0.00 0.00 48
20260903143823 57 211 8.0 0.0 0.00 0.00 0.00 49
20260903143322 56 207 7.0 9.0 0.00 0.00 0.00 50
20260903142824 56 301 1.0 2.0 0.00 0.00 0.00 51
20260903141829 55 232 12.0 13.0 0.00 0.00 0.00 52
20260903141331 55 217 2.0 5.0 0.00 0.00 0.00 53
20260903140333 55 246 2.0 0.0 0.00 0.00 0.00 54
20260903135835 54 239 3.0 3.0 0.00 0.00 0.00 55
20260903135337 54 180 1.0 2.0 0.00 0.00 0.00 55
20260903134839 54 222 0.0 0.0 0.00 0.00 0.00 55
20260903134342 54 172 2.0 2.0 0.00 0.00 0.00 55
20260903133844 54 207 4.0 5.0 0.00 0.00 0.00 55
20260903133343 54 208 4.0 2.0 0.00 0.00 0.00 55
20260903132845 54 222 4.0 3.0 0.00 0.00 0.00 54
20260903132348 54 212 3.0 6.0 0.00 0.00 0.00 54
20260903131850 54 138 3.0 2.0 0.00 0.00 0.00 53
20260903131352 54 188 1.0 0.0 0.00 0.00 0.00 53
20260903130854 54 207 2.0 4.0 0.00 0.00 0.00 53
20260903130354 54 248 2.0 2.0 0.00 0.00 0.00 53
20260903125856 54 187 1.0 1.0 0.00 0.00 0.00 52
20260903125358 54 198 2.0 3.0 0.00 0.00 0.00 52
20260903124901 57 246 3.0 0.0 0.00 0.00 0.00 52
20260903124403 54 256 1.0 0.0 0.00 0.00 0.00 52
20260903123905 54 203 13.0 13.0 0.00 0.00 0.00 52
20260903123404 54 232 13.0 13.0 0.00 0.00 0.00 52
20260903122906 54 226 8.0 10.0 0.00 0.00 0.00 52
20260903122409 54 235 13.0 12.0 0.00 0.00 0.00 51
20260903121911 54 218 14.0 13.0 0.00 0.00 0.00 51
20260903121413 54 201 11.0 4.0 0.00 0.00 0.00 51
20260903120915 54 232 10.0 14.0 0.00 0.00 0.00 51
20260903120415 55 255 12.0 9.0 0.00 0.00 0.00 51
20260903115917 55 229 11.0 15.0 0.00 0.00 0.00 50
20260903115419 55 191 13.0 10.0 0.00 0.00 0.00 51
20260903114921 55 217 14.0 12.0 0.00 0.00 0.00 51
20260903114424 55 205 12.0 13.0 0.00 0.00 0.00 50
20260903113926 55 219 14.0 14.0 0.00 0.00 0.00 50
20260903113425 55 190 13.0 10.0 0.00 0.00 0.00 50
20260903112927 56 224 11.0 12.0 0.00 0.00 0.00 50
20260903112430 56 229 13.0 15.0 0.00 0.00 0.00 50
20260903111932 55 207 11.0 17.0 0.00 0.00 0.00 50
20260903111435 56 208 12.0 13.0 0.00 0.00 0.00 49
20260903110936 56 211 13.0 13.0 0.00 0.00 0.00 50
20260903105938 56 212 11.0 15.0 0.00 0.00 0.00 49
20260903105440 56 232 9.0 9.0 0.00 0.00 0.00 49
20260903104942 56 215 13.0 10.0 0.00 0.00 0.00 48
20260903104445 56 224 10.0 13.0 0.00 0.00 0.00 48
20260903103947 56 231 10.0 4.0 0.00 0.00 0.00 47
20260903103446 56 205 5.0 6.0 0.00 0.00 0.00 47
20260903102948 56 233 8.0 10.0 0.00 0.00 0.00 46
20260903102524 56 233 11.0 6.0 0.00 0.00 0.00 46
20260903102451 56 233 11.0 6.0 0.00 0.00 0.00 46
20260903101953 56 218 8.0 11.0 0.00 0.00 0.00 45
20260903101455 56 210 5.0 12.0 0.00 0.00 0.00 44
20260903100957 56 210 8.0 10.0 0.00 0.00 0.00 43
20260903100456 56 212 7.0 9.0 0.00 0.00 0.00 42
20260903095959 57 215 5.0 8.0 0.00 0.00 0.00 42
20260903095501 57 214 9.0 11.0 0.00 0.00 0.00 41
20260903095004 57 219 9.0 7.0 0.00 0.00 0.00 41
20260903094506 57 233 9.0 6.0 0.00 0.00 0.00 40
20260903094008 57 249 10.0 8.0 0.00 0.00 0.00 40
20260903093507 57 214 8.0 3.0 0.00 0.00 0.00 40
20260903093009 57 229 9.0 13.0 0.00 0.00 0.00 40
20260903092511 57 214 8.0 7.0 0.00 0.00 0.00 39
20260903092046 58 218 9.0 12.0 0.00 0.00 0.00 39
20260903092014 58 218 9.0 12.0 0.00 0.00 0.00 39
20260903091516 58 238 9.0 8.0 0.00 0.00 0.00 39
20260903091019 58 249 10.0 8.0 0.00 0.00 0.00 38
20260903090517 58 217 9.0 9.0 0.00 0.00 0.00 38
20260903090020 58 221 8.0 7.0 0.00 0.00 0.00 37
20260903085522 58 201 8.0 8.0 0.00 0.00 0.00 37
20260903085024 58 242 7.0 6.0 0.00 0.00 0.00 37
20260903084527 58 195 0.0 10.0 0.00 0.00 0.00 36
20260903084029 58 228 1.0 0.0 0.00 0.00 0.00 36
20260903083528 58 198 0.0 0.0 0.00 0.00 0.00 36
20260903083030 58 198 1.0 2.0 0.00 0.00 0.00 35
20260903082532 58 217 0.0 3.0 0.00 0.00 0.00 35
20260903082037 58 273 1.0 3.0 0.00 0.00 0.00 34
20260903082035 58 198 0.0 0.0 0.00 0.00 0.00 34
20260903081537 58 273 1.0 3.0 0.00 0.00 0.00 34
20260903081141 58 260 0.0 0.0 0.00 0.00 0.00 34
20260903081039 58 260 0.0 0.0 0.00 0.00 0.00 34
20260903080538 58 226 2.0 0.0 0.00 0.00 0.00 34
20260903080231 58 222 0.0 0.0 0.00 0.00 0.00 34
20260903080041 58 222 0.0 0.0 0.00 0.00 0.00 34
20260903075543 58 240 1.0 3.0 0.00 0.00 0.00 35
20260903075045 58 249 1.0 3.0 0.00 0.00 0.00 35
20260903074547 58 153 0.0 0.0 0.00 0.00 0.00 35
20260903074448 59 249 0.0 0.0 0.00 0.00 0.00 34
20260903074050 59 249 0.0 0.0 0.00 0.00 0.00 34
20260903073549 59 193 1.0 0.0 0.00 0.00 0.00 33
20260903072553 58 219 4.0 5.0 0.00 0.00 0.00 31
20260903072056 58 193 1.0 0.0 0.00 0.00 0.00 33
20260903071558 58 207 3.0 5.0 0.00 0.00 0.00 34
20260903071100 57 262 3.0 3.0 0.00 0.00 0.00 36
20260903070559 57 146 1.0 1.0 0.00 0.00 0.00 38
20260903065604 57 269 0.0 0.0 0.00 0.00 0.00 42
20260903065106 57 269 0.0 0.0 0.00 0.00 0.00 42
20260903064608 57 201 0.0 0.0 0.00 0.00 0.00 43
20260903064111 57 201 0.0 0.0 0.00 0.00 0.00 43
20260903063610 57 222 0.0 0.0 0.00 0.00 0.00 45
20260903063112 57 222 0.0 0.0 0.00 0.00 0.00 45
20260903062614 57 222 0.0 0.0 0.00 0.00 0.00 46
20260903062116 57 191 1.0 0.0 0.00 0.00 0.00 47
20260903061619 57 226 0.0 0.0 0.00 0.00 0.00 47
20260903061121 57 226 0.0 0.0 0.00 0.00 0.00 46
20260903060620 57 226 0.0 0.0 0.00 0.00 0.00 45
20260903060122 57 226 0.0 0.0 0.00 0.00 0.00 45
20260903055127 58 215 0.0 0.0 0.00 0.00 0.00 42
20260903054629 58 215 0.0 0.0 0.00 0.00 0.00 40
20260903054131 58 215 0.0 0.0 0.00 0.00 0.00 40
20260903053630 58 215 0.0 0.0 0.00 0.00 0.00 40
20260903052636 59 215 0.0 0.0 0.00 0.00 0.00 38
20260903052137 59 215 0.0 0.0 0.00 0.00 0.00 36
20260903051640 60 215 0.0 0.0 0.00 0.00 0.00 34
20260903051142 60 215 0.0 0.0 0.00 0.00 0.00 32
20260903050641 61 215 0.0 0.0 0.00 0.00 0.00 30
20260903050143 61 215 0.0 0.0 0.00 0.00 0.00 27
20260903045645 61 215 0.0 0.0 0.00 0.00 0.00 25
20260903045148 61 215 0.0 0.0 0.00 0.00 0.00 24
20260903044650 62 215 0.0 0.0 0.00 0.00 0.00 24
20260903044152 62 215 0.0 0.0 0.00 0.00 0.00 24
20260903043752 62 215 0.0 0.0 0.00 0.00 0.00 24
20260903043651 62 215 0.0 0.0 0.00 0.00 0.00 24
20260903043154 62 215 0.0 0.0 0.00 0.00 0.00 24
20260903042656 62 215 0.0 0.0 0.00 0.00 0.00 23
20260903042158 62 215 0.0 0.0 0.00 0.00 0.00 22
20260903041700 62 215 0.0 0.0 0.00 0.00 0.00 19
20260903041203 62 215 0.0 0.0 0.00 0.00 0.00 18
20260903040702 63 215 0.0 0.0 0.00 0.00 0.00 18
20260903040205 63 215 0.0 0.0 0.00 0.00 0.00 17
20260903035706 63 215 0.0 0.0 0.00 0.00 0.00 15
20260903035208 64 215 0.0 0.0 0.00 0.00 0.00 14
20260903034711 64 215 0.0 0.0 0.00 0.00 0.00 13
20260903034213 64 215 0.0 0.0 0.00 0.00 0.00 12
20260903033712 65 215 0.0 0.0 0.00 0.00 0.00 11
20260903033214 65 215 0.0 0.0 0.00 0.00 0.00 11
20260903032717 65 215 0.0 0.0 0.00 0.00 0.00 9
20260903032219 66 215 0.0 0.0 0.00 0.00 0.00 7
20260903031721 66 215 0.0 0.0 0.00 0.00 0.00 6
20260903031223 66 215 0.0 0.0 0.00 0.00 0.00 5
20260903030723 67 215 0.0 0.0 0.00 0.00 0.00 5
20260903030225 67 215 0.0 0.0 0.00 0.00 0.00 5
20260903025727 67 215 0.0 0.0 0.00 0.00 0.00 5
20260903025229 68 215 0.0 0.0 0.00 0.00 0.00 5
20260903024234 68 215 0.0 0.0 0.00 0.00 0.00 5
20260903023733 68 215 0.0 0.0 0.00 0.00 0.00 5
20260903023235 68 215 0.0 0.0 0.00 0.00 0.00 5
20260903022737 69 215 0.0 0.0 0.00 0.00 0.00 5
20260903022239 70 215 0.0 0.0 0.00 0.00 0.00 4
20260903021742 70 215 0.0 0.0 0.00 0.00 0.00 4
20260903021244 71 215 0.0 0.0 0.00 0.00 0.00 4
20260903020743 71 215 0.0 0.0 0.00 0.00 0.00 4
20260903020245 71 215 0.0 0.0 0.00 0.00 0.00 3
20260903015748 72 215 0.0 0.0 0.00 0.00 0.00 3